[[{"header":{"parameterUnit":"m.s-1","parameterCategory":1,"la1":30.2991,"la2":30.254,"lo1":-89.0895,"lo2":-89.0444,"dy":0.0017,"dx":0.0017,"nx":28,"ny":28,"refTime":"2023-10-21T09:00:00:Z","depth":0,"parameterNumber":2,"parameterNumberName":"U-component_of_WINDS"},"data":[0,0,0,0,0,0,0,0,0,0,0,0,0,0,0,0,0,0,0,0,0,0,0,0,0,0,0,0,0,0,0,0,0,0,0,0,0,0,0,0,0,0,0,0,0,0,0,0,0,0,0,0,0,0,0,0,0,0,0.8463,0.8463,0,0.8517,0.8517,0.8518,0.8483,0.8481,0.8479,0.8478,0.8535,0.8538,0.8541,0,0,0,0,0,0,0,0,0,0,0,0,0,0.833,0.8332,0.8463,0.8463,0.8464,0.8517,0.8518,0.8518,0.8483,0.8481,0.8479,0.8477,0.8534,0.8537,0.8541,0,0,0,0,0,0,0,0,0,0,0,0,0,0.8386,0.8333,0.8463,0.8453,0.8452,0.8517,0.8518,0.8518,0.8483,0.8481,0.8478,0.8476,0.8533,0.8537,0.8541,0.8619,0,0,0.8555,0.8557,0,0,0,0,0,0,0,0,0.8383,0.8391,0.8453,0.8453,0.8453,0.849,0.8492,0.8552,0.8484,0.8472,0.8478,0.8475,0.8522,0.8527,0.8543,0.8622,0.8624,0.8556,0.8559,0.8561,0.8562,0,0,0,0,0,0,0,0.8379,0.8389,0.8484,0.8454,0.8454,0.8446,0.8451,0.8503,0.851,0.8472,0.847,0.8477,0.8522,0.8539,0.8544,0.8625,0.8556,0.856,0.8563,0.8564,0.877,0.8773,0,0,0,0,0,0,0.8376,0.8386,0.8482,0.8486,0.8411,0.845,0.8456,0.8481,0.8509,0.8511,0.8479,0.8475,0.8532,0.8539,0.8546,0.8639,0.8561,0.8565,0.8567,0.8767,0.8771,0.8774,0,0,0,0,0,0,0.8373,0.8385,0.848,0.8435,0.8446,0.8455,0.8483,0.8483,0.85,0.8514,0.8515,0.8495,0.853,0.8539,0.8601,0.864,0.8567,0.8571,0.8764,0.8768,0.8772,0.8825,0,0,0,0,0,0,0.8369,0.8384,0.8413,0.8436,0.8449,0.8534,0.8486,0.8486,0.8508,0.8504,0.853,0.8532,0.8529,0.8594,0.8606,0.8645,0.8575,0.8761,0.8766,0.8771,0.8819,0.883,0.8839,0,0,0,0,0,0.8365,0.8426,0.8415,0.8427,0.8486,0.8536,0.8544,0.854,0.8511,0.8541,0.855,0.8531,0.8634,0.8601,0.8613,0.8655,0.8758,0.8765,0.877,0.8815,0.8828,0.8839,0,0,0,0,0,0,0.8408,0.8429,0.8417,0.8487,0.851,0.853,0.8568,0.8553,0.8585,0.858,0.8573,0.8579,0.8644,0.8655,0.8618,0.8731,0.8692,0.8701,0.8721,0.8734,0.8743,0.8739,0.8578,0,0,0,0,0,0.8426,0.8465,0.8481,0.8542,0.8554,0.8559,0.8581,0.8575,0.8599,0.8609,0.8622,0.8647,0.8685,0.871,0.8745,0.8821,0.8826,0.8856,0.8865,0.8873,0.8881,0.8922,0.8935,0.8794,0.8794,0.8794,0,0,0.8463,0.8479,0.8505,0.8551,0.8568,0.8609,0.8567,0.8613,0.8643,0.8616,0.8675,0.8686,0.8712,0.8781,0.8812,0.8793,0.8921,0.8881,0.8887,0.8891,0.893,0.8943,0.8955,0.8798,0.8797,0.8797,0,0,0.8552,0.8568,0.862,0.8638,0.8665,0.8668,0.868,0.8703,0.8709,0.8768,0.8748,0.8785,0.885,0.887,0.8889,0.8985,0.8969,0.8997,0.9048,0.9088,0.9099,0.9109,0.9144,0.9156,0.9004,0.9005,0.9005,0,0.8595,0.8656,0.8649,0.8696,0.8717,0.8694,0.8747,0.8765,0.8802,0.8818,0.8795,0.8877,0.8893,0.8966,0.899,0.9006,0.902,0.8994,0.9098,0.9108,0.9117,0.915,0.9163,0.9008,0.9008,0.9007,0.9007,0,0.8707,0.875,0.8789,0.8825,0.885,0.89,0.8901,0.8928,0.8921,0.8926,0.8986,0.9005,0.9044,0.9061,0.9054,0.9134,0.9121,0.9099,0.9059,0.9134,0.9165,0.9177,0.9013,0.9011,0.901,0.901,0,0,0.8825,0.8857,0.8871,0.8887,0.8915,0.8948,0.8997,0.9034,0.9058,0.9084,0.9125,0.9181,0.916,0.9182,0.9177,0.9212,0.9287,0.9185,0.9186,0.9204,0.9376,0.9393,0.9408,0.9277,0.9279,0.9281,0.9374,0,0.8916,0.9,0.8996,0.9075,0.9115,0.9093,0.9136,0.9158,0.9164,0.9199,0.9206,0.9246,0.9215,0.9228,0.9262,0.9271,0.9322,0.9264,0.9315,0.9317,0.9309,0.9424,0.9442,0.9529,0.9386,0.9388,0.939,0,0.9032,0.9062,0.9146,0.9167,0.9184,0.9222,0.9256,0.929,0.9314,0.9316,0.934,0.933,0.938,0.9338,0.9407,0.9368,0.9389,0.9396,0.94,0.9404,0.9358,0.9432,0.9557,0.957,0.9409,0.9407,0.9406,0,0.911,0.9171,0.9229,0.9244,0.927,0.9298,0.931,0.9332,0.9355,0.9386,0.9401,0.9436,0.9456,0.9484,0.9484,0.9454,0.9554,0.9513,0.9558,0.9558,0.958,0.9578,0.971,0.9593,0.9593,0.9592,0.9592,0,0.9212,0.9264,0.9264,0.93,0.9358,0.9352,0.941,0.9419,0.9439,0.9477,0.9461,0.9496,0.9493,0.953,0.953,0.9587,0.9596,0.9599,0.9599,0.9601,0.9601,0.9614,0.9608,0.9596,0.9595,0.9594,0.9594,0,0.9308,0.9311,0.9373,0.9393,0.9399,0.9441,0.9458,0.9492,0.9497,0.9545,0.9556,0.9564,0.9605,0.9608,0.9656,0.9656,0.9726,0.9718,0.9717,0.9716,0.9761,0.9757,0.9906,0.9925,0.9796,0.9797,0.9798,0,0.9373,0.9412,0.9437,0.946,0.9474,0.9513,0.9536,0.9532,0.9557,0.9588,0.9619,0.9659,0.9691,0.9759,0.9769,0.9806,0.9799,0.9849,0.9805,0.9806,0.98,0.9798,0.9802,0.9858,0.9859,0.986,0.9861,0,0.9487,0.9487,0.9521,0.9555,0.9583,0.9611,0.9636,0.9656,0.9656,0.9685,0.9727,0.9752,0.9801,0.9841,0.9877,0.989,0.9876,0.9875,0.9888,0.989,0.9888,0.989,0.9741,0.9872,0.9871,0.987,0.9869,0.9869,0.957,0.9604,0.9626,0.9665,0.9683,0.9707,0.974,0.9749,0.9784,0.9823,0.9819,0.9866,0.989,0.9937,0.9953,0.999,0.9973,0.9991,0.9996,1.0,1.0005,0.9882,0.9997,0.9996,0.9996,0.9996,0.9996,0,0.9684,0.9697,0.9732,0.9768,0.9798,0.9782,0.9809,0.9836,0.9877,0.99,0.9932,0.998,1.0019,1.0033,1.0071,1.0098,1.0092,1.0108,1.0106,1.0109,1.0018,1.0003,1.0112,1.0112,1.0112,1.0112,1.0111,1.0111,0.9746,0.9803,0.9805,0.9871,0.9884,0.9929,0.9946,0.9968,0.9987,1.0042,1.0074,1.0082,1.0102,1.0141,1.0176,1.0179,1.0194,1.0212,1.0213,1.0127,1.0115,1.0104,1.0091,1.0215,1.0216,1.03,1.0301,1.0302]},{"header":{"parameterUnit":"m.s-1","parameterCategory":1,"la1":30.2991,"la2":30.254,"lo1":-89.0895,"lo2":-89.0444,"dy":0.0017,"dx":0.0017,"nx":28,"ny":28,"refTime":"2023-10-21T09:00:00:Z","depth":0,"parameterNumber":3,"parameterNumberName":"V-component_of_WINDS"},"data":[0,0,0,0,0,0,0,0,0,0,0,0,0,0,0,0,0,0,0,0,0,0,0,0,0,0,0,0,0,0,0,0,0,0,0,0,0,0,0,0,0,0,0,0,0,0,0,0,0,0,0,0,0,0,0,0,0,0,-1.0483,-1.0483,0,-1.0481,-1.0481,-1.0481,-1.0478,-1.0478,-1.0478,-1.0478,-1.0473,-1.0473,-1.0473,0,0,0,0,0,0,0,0,0,0,0,0,0,-1.0485,-1.0485,-1.0483,-1.0483,-1.0483,-1.0481,-1.0481,-1.0481,-1.0478,-1.0478,-1.0478,-1.0478,-1.0473,-1.0473,-1.0473,0,0,0,0,0,0,0,0,0,0,0,0,0,-1.0483,-1.0485,-1.0483,-1.0482,-1.0481,-1.0481,-1.0481,-1.0481,-1.0478,-1.0478,-1.0478,-1.0478,-1.0473,-1.0473,-1.0473,-1.0474,0,0,-1.0473,-1.0473,0,0,0,0,0,0,0,0,-1.0483,-1.0483,-1.0482,-1.0482,-1.0482,-1.048,-1.048,-1.0478,-1.0478,-1.0479,-1.0478,-1.0477,-1.0475,-1.0475,-1.0475,-1.0473,-1.0473,-1.0473,-1.0473,-1.0473,-1.0472,0,0,0,0,0,0,0,-1.0483,-1.0483,-1.0482,-1.0482,-1.0482,-1.0481,-1.048,-1.0479,-1.0477,-1.0479,-1.0479,-1.0479,-1.0475,-1.0475,-1.0474,-1.0473,-1.0473,-1.0473,-1.0472,-1.0472,-1.0473,-1.0473,0,0,0,0,0,0,-1.0484,-1.0483,-1.0482,-1.0482,-1.0482,-1.0481,-1.048,-1.048,-1.0478,-1.0477,-1.0479,-1.0478,-1.0475,-1.0475,-1.0474,-1.0475,-1.0473,-1.0472,-1.0472,-1.0473,-1.0473,-1.0473,0,0,0,0,0,0,-1.0484,-1.0484,-1.0483,-1.0483,-1.0483,-1.0481,-1.0481,-1.048,-1.048,-1.0477,-1.0477,-1.0479,-1.0475,-1.0474,-1.0474,-1.0475,-1.0472,-1.0472,-1.0473,-1.0473,-1.0473,-1.0477,0,0,0,0,0,0,-1.0484,-1.0484,-1.0484,-1.0483,-1.0483,-1.0483,-1.0481,-1.048,-1.048,-1.048,-1.0477,-1.0477,-1.0475,-1.0474,-1.0474,-1.0475,-1.0472,-1.0473,-1.0473,-1.0473,-1.0476,-1.0477,-1.0477,0,0,0,0,0,-1.0484,-1.0485,-1.0484,-1.0484,-1.0483,-1.0483,-1.0483,-1.0481,-1.048,-1.048,-1.0479,-1.0477,-1.0475,-1.0474,-1.0474,-1.0475,-1.0473,-1.0473,-1.0473,-1.0476,-1.0477,-1.0477,0,0,0,0,0,0,-1.0485,-1.0485,-1.0484,-1.0484,-1.0484,-1.0482,-1.0482,-1.0481,-1.048,-1.048,-1.0478,-1.0477,-1.0477,-1.0476,-1.0475,-1.0475,-1.0474,-1.0474,-1.0476,-1.0477,-1.0477,-1.0477,-1.0472,0,0,0,0,0,-1.0486,-1.0486,-1.0485,-1.0486,-1.0486,-1.0484,-1.0484,-1.0483,-1.0482,-1.0481,-1.048,-1.0479,-1.0478,-1.0477,-1.0476,-1.0477,-1.0476,-1.0477,-1.0477,-1.0478,-1.0478,-1.0478,-1.0479,-1.0474,-1.0474,-1.0474,0,0,-1.0486,-1.0486,-1.0486,-1.0486,-1.0485,-1.0485,-1.0484,-1.0484,-1.0484,-1.0481,-1.0481,-1.048,-1.0478,-1.0479,-1.0478,-1.0477,-1.0479,-1.0478,-1.0478,-1.0478,-1.0478,-1.0479,-1.0479,-1.0474,-1.0474,-1.0474,0,0,-1.0488,-1.0487,-1.0488,-1.0488,-1.0487,-1.0487,-1.0487,-1.0486,-1.0485,-1.0485,-1.0484,-1.0484,-1.0482,-1.0481,-1.0481,-1.0483,-1.0481,-1.0483,-1.0485,-1.0485,-1.0486,-1.0486,-1.0487,-1.0487,-1.0483,-1.0483,-1.0483,0,-1.0488,-1.0489,-1.0488,-1.0489,-1.0489,-1.0488,-1.0488,-1.0488,-1.0487,-1.0487,-1.0486,-1.0485,-1.0484,-1.0484,-1.0485,-1.0484,-1.0484,-1.0483,-1.0486,-1.0486,-1.0487,-1.0487,-1.0488,-1.0483,-1.0483,-1.0483,-1.0483,0,-1.049,-1.049,-1.0491,-1.0491,-1.0491,-1.0491,-1.0491,-1.0491,-1.049,-1.049,-1.049,-1.0489,-1.0488,-1.0488,-1.0487,-1.0488,-1.0488,-1.0487,-1.0484,-1.0487,-1.0488,-1.0488,-1.0484,-1.0484,-1.0484,-1.0484,0,0,-1.049,-1.0491,-1.0491,-1.0492,-1.0492,-1.0492,-1.0493,-1.0493,-1.0493,-1.0493,-1.0493,-1.0493,-1.0492,-1.0491,-1.049,-1.0491,-1.0493,-1.049,-1.049,-1.049,-1.0495,-1.0495,-1.0496,-1.0492,-1.0492,-1.0493,-1.0495,0,-1.0491,-1.0493,-1.0493,-1.0494,-1.0495,-1.0494,-1.0495,-1.0495,-1.0495,-1.0495,-1.0495,-1.0494,-1.0493,-1.0493,-1.0494,-1.0493,-1.0494,-1.0493,-1.0492,-1.0492,-1.0492,-1.0496,-1.0497,-1.0499,-1.0495,-1.0495,-1.0495,0,-1.0492,-1.0493,-1.0495,-1.0496,-1.0496,-1.0496,-1.0497,-1.0497,-1.0497,-1.0497,-1.0497,-1.0497,-1.0497,-1.0496,-1.0497,-1.0496,-1.0496,-1.0496,-1.0496,-1.0495,-1.0493,-1.0495,-1.0499,-1.05,-1.0496,-1.0496,-1.0496,0,-1.0492,-1.0494,-1.0495,-1.0496,-1.0497,-1.0497,-1.0498,-1.0498,-1.0498,-1.0499,-1.0499,-1.0499,-1.0499,-1.0499,-1.0499,-1.0498,-1.05,-1.0498,-1.0499,-1.0499,-1.0499,-1.0499,-1.0503,-1.05,-1.05,-1.05,-1.05,0,-1.0493,-1.0494,-1.0496,-1.0496,-1.0497,-1.0498,-1.0499,-1.0499,-1.05,-1.05,-1.05,-1.0501,-1.05,-1.05,-1.05,-1.0501,-1.0501,-1.05,-1.05,-1.05,-1.05,-1.05,-1.0499,-1.05,-1.05,-1.05,-1.05,0,-1.0493,-1.0494,-1.0496,-1.0497,-1.0498,-1.0498,-1.05,-1.05,-1.0501,-1.0502,-1.0502,-1.0502,-1.0503,-1.0502,-1.0503,-1.0502,-1.0504,-1.0503,-1.0504,-1.0503,-1.0504,-1.0504,-1.0508,-1.0508,-1.0505,-1.0505,-1.0505,0,-1.0493,-1.0494,-1.0496,-1.0497,-1.0498,-1.0499,-1.05,-1.0501,-1.0501,-1.0502,-1.0503,-1.0504,-1.0504,-1.0506,-1.0505,-1.0506,-1.0505,-1.0507,-1.0505,-1.0506,-1.0505,-1.0505,-1.0505,-1.0507,-1.0507,-1.0507,-1.0507,0,-1.0493,-1.0494,-1.0496,-1.0498,-1.0499,-1.05,-1.0501,-1.0502,-1.0503,-1.0504,-1.0505,-1.0505,-1.0507,-1.0507,-1.0508,-1.0508,-1.0507,-1.0507,-1.0508,-1.0507,-1.0507,-1.0507,-1.0504,-1.0507,-1.0507,-1.0507,-1.0507,-1.0507,-1.0493,-1.0494,-1.0496,-1.0498,-1.0499,-1.0501,-1.0502,-1.0503,-1.0504,-1.0506,-1.0506,-1.0507,-1.0508,-1.0509,-1.051,-1.051,-1.051,-1.051,-1.051,-1.051,-1.051,-1.0508,-1.0511,-1.0511,-1.0511,-1.0511,-1.0511,0,-1.0493,-1.0495,-1.0497,-1.0499,-1.0501,-1.0501,-1.0503,-1.0504,-1.0505,-1.0507,-1.0508,-1.0509,-1.051,-1.0511,-1.0512,-1.0513,-1.0513,-1.0513,-1.0513,-1.0513,-1.0511,-1.051,-1.0513,-1.0513,-1.0513,-1.0513,-1.0513,-1.0513,-1.0493,-1.0495,-1.0497,-1.05,-1.0501,-1.0503,-1.0504,-1.0505,-1.0506,-1.0509,-1.051,-1.0511,-1.0512,-1.0513,-1.0514,-1.0514,-1.0515,-1.0515,-1.0515,-1.0513,-1.0513,-1.0512,-1.0512,-1.0515,-1.0515,-1.0517,-1.0517,-1.0517]}]]